Time,TemperatureF,DewpointF,PressureIn,WindDirection,WindDirectionDegrees,WindSpeedMPH,WindSpeedGustMPH,Humidity,HourlyPrecipIn,Conditions,Clouds,dailyrainin,SoftwareType,DateUTC
2013-01-30 05:35:00,35.8,33.7,29.76,WSW,248,0.0,0.0,92,0.00,,,0.04,VWS V14.00,2013-01-30 10:35:00,
2013-01-30 05:36:00,35.8,33.7,29.76,WSW,248,0.0,0.0,92,0.00,,,0.04,VWS V14.00,2013-01-30 10:36:00,
2013-01-30 05:41:00,36.0,33.9,29.76,WSW,248,0.0,0.0,92,0.00,,,0.00,VWS V14.00,2013-01-30 10:41:00,
2013-01-30 05:46:00,36.0,33.9,29.76,WSW,248,0.0,0.0,92,0.00,,,0.00,VWS V14.00,2013-01-30 10:46:00,
2013-01-30 05:51:00,36.1,34.0,29.76,SW,225,0.0,0.0,92,0.00,,,0.00,VWS V14.00,2013-01-30 10:51:00,
2013-01-30 05:56:00,36.3,34.2,29.76,West,270,0.0,0.0,92,0.00,,,0.00,VWS V14.00,2013-01-30 10:56:00,
2013-01-30 06:01:00,36.3,34.2,29.76,West,270,0.0,0.0,92,0.03,,,0.03,VWS V14.00,2013-01-30 11:01:00,
2013-01-30 06:06:00,36.3,34.2,29.76,West,270,0.0,0.0,92,0.03,,,0.03,VWS V14.00,2013-01-30 11:06:00,
2013-01-30 06:11:00,36.3,34.5,29.76,West,270,0.0,0.0,93,0.03,,,0.03,VWS V14.00,2013-01-30 11:11:00,
2013-01-30 06:16:00,36.3,34.5,29.76,SW,225,0.0,0.0,93,0.03,,,0.03,VWS V14.00,2013-01-30 11:16:00,
2013-01-30 06:21:00,36.3,34.2,29.76,WSW,248,0.0,0.0,92,0.03,,,0.03,VWS V14.00,2013-01-30 11:21:00,
2013-01-30 06:26:00,36.3,34.2,29.76,West,270,0.0,0.0,92,0.08,,,0.08,VWS V14.00,2013-01-30 11:26:00,
2013-01-30 06:31:00,36.3,34.2,29.76,West,270,0.0,0.0,92,0.08,,,0.08,VWS V14.00,2013-01-30 11:31:00,
2013-01-30 06:36:00,36.1,33.8,29.76,West,270,0.0,0.0,91,0.08,,,0.08,VWS V14.00,2013-01-30 11:36:00,
2013-01-30 06:41:00,36.1,34.0,29.76,West,270,0.0,0.0,92,0.08,,,0.08,VWS V14.00,2013-01-30 11:41:00,
2013-01-30 06:46:00,36.3,34.2,29.76,West,270,0.0,0.0,92,0.08,,,0.08,VWS V14.00,2013-01-30 11:46:00,
2013-01-30 06:51:00,36.3,34.2,29.74,WSW,248,0.0,0.0,92,0.12,,,0.12,VWS V14.00,2013-01-30 11:51:00,
2013-01-30 06:56:00,36.3,34.2,29.74,WSW,248,0.0,0.0,92,0.12,,,0.12,VWS V14.00,2013-01-30 11:56:00,
2013-01-30 07:01:00,36.5,34.4,29.74,WNW,292,0.0,0.0,92,0.09,,,0.12,VWS V14.00,2013-01-30 12:01:00,
2013-01-30 07:06:00,36.7,34.6,29.74,SSW,202,0.0,0.0,92,0.09,,,0.12,VWS V14.00,2013-01-30 12:06:00,
2013-01-30 07:11:00,36.5,34.4,29.74,West,270,0.0,0.0,92,0.09,,,0.12,VWS V14.00,2013-01-30 12:11:00,
2013-01-30 07:16:00,36.7,34.6,29.74,West,270,0.0,0.0,92,0.09,,,0.12,VWS V14.00,2013-01-30 12:16:00,
2013-01-30 07:21:00,36.7,34.8,29.71,WNW,292,0.0,0.0,93,0.13,,,0.16,VWS V14.00,2013-01-30 12:21:00,
2013-01-30 07:26:00,36.9,35.0,29.71,West,270,0.0,0.0,93,0.13,,,0.16,VWS V14.00,2013-01-30 12:26:00,
2013-01-30 07:31:00,37.0,35.2,29.71,SSW,202,0.0,0.0,93,0.08,,,0.16,VWS V14.00,2013-01-30 12:31:00,
2013-01-30 07:36:00,36.9,35.0,29.71,SW,225,0.0,0.0,93,0.08,,,0.16,VWS V14.00,2013-01-30 12:36:00,
2013-01-30 07:41:00,36.9,34.8,29.71,SSW,202,0.0,0.0,92,0.08,,,0.16,VWS V14.00,2013-01-30 12:41:00,
2013-01-30 07:46:00,36.9,34.8,29.71,SSW,202,0.0,0.0,92,0.12,,,0.20,VWS V14.00,2013-01-30 12:46:00,
2013-01-30 07:51:00,37.0,34.9,29.71,SSW,202,0.0,0.0,92,0.08,,,0.20,VWS V14.00,2013-01-30 12:51:00,
2013-01-30 07:56:00,37.0,34.9,29.71,SSW,202,0.0,0.0,92,0.08,,,0.20,VWS V14.00,2013-01-30 12:56:00,
2013-01-30 08:01:00,37.2,35.1,29.71,SSW,202,0.0,0.0,92,0.08,,,0.20,VWS V14.00,2013-01-30 13:01:00,
2013-01-30 08:06:00,37.4,35.3,29.71,SSW,202,0.0,0.0,92,0.08,,,0.20,VWS V14.00,2013-01-30 13:06:00,
2013-01-30 08:11:00,37.4,35.3,29.71,SSW,202,0.0,0.0,92,0.12,,,0.24,VWS V14.00,2013-01-30 13:11:00,
2013-01-30 08:16:00,37.4,35.3,29.71,West,270,0.0,0.0,92,0.12,,,0.24,VWS V14.00,2013-01-30 13:16:00,
2013-01-30 08:21:00,37.6,35.5,29.68,West,270,0.0,0.0,92,0.08,,,0.24,VWS V14.00,2013-01-30 13:21:00,
2013-01-30 08:26:00,37.9,36.1,29.68,WSW,248,0.0,0.0,93,0.08,,,0.24,VWS V14.00,2013-01-30 13:26:00,
2013-01-30 08:31:00,38.1,36.3,29.68,WSW,248,0.0,0.0,93,0.08,,,0.24,VWS V14.00,2013-01-30 13:31:00,
2013-01-30 08:36:00,38.5,36.6,29.68,West,270,0.0,0.0,93,0.08,,,0.24,VWS V14.00,2013-01-30 13:36:00,
2013-01-30 08:41:00,38.8,37.3,29.68,West,270,0.0,0.0,94,0.08,,,0.24,VWS V14.00,2013-01-30 13:41:00,
2013-01-30 08:46:00,39.4,37.8,29.68,WSW,248,0.0,0.0,94,0.04,,,0.24,VWS V14.00,2013-01-30 13:46:00,
2013-01-30 08:51:00,39.7,38.2,29.68,WSW,248,0.0,0.0,94,0.04,,,0.24,VWS V14.00,2013-01-30 13:51:00,
2013-01-30 08:56:00,39.7,38.2,29.68,WSW,248,0.0,0.0,94,0.04,,,0.24,VWS V14.00,2013-01-30 13:56:00,
2013-01-30 09:01:00,40.3,39.0,29.68,WSW,248,0.0,0.0,95,0.04,,,0.24,VWS V14.00,2013-01-30 14:01:00,
2013-01-30 09:06:00,40.5,39.1,29.68,WNW,292,0.0,0.0,95,0.04,,,0.24,VWS V14.00,2013-01-30 14:06:00,
2013-01-30 09:11:00,41.2,39.9,29.68,WSW,248,0.0,0.0,95,0.04,,,0.28,VWS V14.00,2013-01-30 14:11:00,
2013-01-30 09:16:00,41.5,40.2,29.68,West,270,0.0,0.0,95,0.04,,,0.28,VWS V14.00,2013-01-30 14:16:00,
2013-01-30 09:21:00,42.1,41.0,29.65,WSW,248,0.0,0.0,96,0.04,,,0.28,VWS V14.00,2013-01-30 14:21:00,
2013-01-30 09:26:00,42.8,41.7,29.65,West,270,0.0,0.0,96,0.04,,,0.28,VWS V14.00,2013-01-30 14:26:00,
2013-01-30 09:31:00,44.4,43.6,29.65,SSW,202,11.6,11.6,97,0.04,,,0.28,VWS V14.00,2013-01-30 14:31:00,
2013-01-30 09:36:00,45.5,45.0,29.65,SW,225,0.0,0.0,98,0.04,,,0.28,VWS V14.00,2013-01-30 14:36:00,
2013-01-30 09:41:00,45.9,45.3,29.65,SW,225,0.0,0.0,98,0.04,,,0.28,VWS V14.00,2013-01-30 14:41:00,
2013-01-30 09:46:00,46.2,45.7,29.65,SW,225,3.1,3.1,98,0.04,,,0.28,VWS V14.00,2013-01-30 14:46:00,
2013-01-30 09:51:00,46.8,46.2,29.65,WSW,248,0.0,0.0,98,0.04,,,0.28,VWS V14.00,2013-01-30 14:51:00,
2013-01-30 09:56:00,46.8,46.2,29.65,WNW,292,0.0,4.5,98,0.04,,,0.28,VWS V14.00,2013-01-30 14:56:00,
2013-01-30 10:01:00,47.3,46.8,29.65,West,270,3.1,3.1,98,0.04,,,0.28,VWS V14.00,2013-01-30 15:01:00,
2013-01-30 10:06:00,47.7,47.1,29.65,WNW,292,10.7,11.2,98,0.04,,,0.28,VWS V14.00,2013-01-30 15:06:00,
2013-01-30 10:11:00,48.2,47.7,29.62,SW,225,2.7,4.9,98,0.00,,,0.28,VWS V14.00,2013-01-30 15:11:00,
2013-01-30 10:16:00,48.6,48.0,29.62,West,270,6.7,6.7,98,0.00,,,0.28,VWS V14.00,2013-01-30 15:16:00,
2013-01-30 10:21:00,48.7,48.2,29.62,WSW,248,12.5,12.5,98,0.05,,,0.33,VWS V14.00,2013-01-30 15:21:00,
2013-01-30 10:26:00,49.3,48.7,29.62,WSW,248,7.6,7.6,98,0.05,,,0.33,VWS V14.00,2013-01-30 15:26:00,
2013-01-30 10:31:00,49.5,48.9,29.62,WSW,248,15.2,15.2,98,0.05,,,0.33,VWS V14.00,2013-01-30 15:31:00,
2013-01-30 10:36:00,49.8,49.3,29.62,WSW,248,11.6,11.6,98,0.05,,,0.33,VWS V14.00,2013-01-30 15:36:00,
2013-01-30 10:41:00,50.0,49.5,29.62,SW,225,11.2,11.2,98,0.05,,,0.33,VWS V14.00,2013-01-30 15:41:00,
2013-01-30 10:46:00,50.2,49.6,29.62,SSW,202,0.0,0.0,98,0.05,,,0.33,VWS V14.00,2013-01-30 15:46:00,
2013-01-30 10:51:00,50.5,50.0,29.59,SW,225,15.7,15.7,98,0.05,,,0.33,VWS V14.00,2013-01-30 15:51:00,
2013-01-30 10:56:00,50.9,50.4,29.59,West,270,5.4,5.4,98,0.05,,,0.33,VWS V14.00,2013-01-30 15:56:00,
2013-01-30 11:01:00,51.3,50.7,29.59,WNW,292,11.6,11.6,98,0.05,,,0.33,VWS V14.00,2013-01-30 16:01:00,
2013-01-30 11:05:00,51.3,50.7,29.59,SW,225,0.0,0.0,98,0.05,,,0.33,VWS V14.00,2013-01-30 16:05:00,
2013-01-30 11:11:00,51.6,51.1,29.59,WNW,292,4.0,4.0,98,0.05,,,0.33,VWS V14.00,2013-01-30 16:11:00,
2013-01-30 11:16:00,51.8,51.3,29.59,WSW,248,5.8,5.8,98,0.05,,,0.33,VWS V14.00,2013-01-30 16:16:00,
2013-01-30 11:20:00,52.0,51.4,29.56,SW,225,9.8,9.8,98,0.00,,,0.33,VWS V14.00,2013-01-30 16:20:00,
2013-01-30 11:25:00,52.2,51.6,29.56,SSW,202,10.7,10.7,98,0.00,,,0.33,VWS V14.00,2013-01-30 16:25:00,
2013-01-30 11:31:00,52.5,52.0,29.56,WSW,248,0.0,0.0,98,0.00,,,0.33,VWS V14.00,2013-01-30 16:31:00,
2013-01-30 11:36:00,52.9,52.3,29.56,SW,225,11.6,14.8,98,0.00,,,0.33,VWS V14.00,2013-01-30 16:36:00,
2013-01-30 11:41:00,53.1,52.5,29.56,SW,225,10.7,15.7,98,0.00,,,0.33,VWS V14.00,2013-01-30 16:41:00,
2013-01-30 11:46:00,53.1,52.5,29.56,SW,225,5.4,5.4,98,0.00,,,0.33,VWS V14.00,2013-01-30 16:46:00,
2013-01-30 11:51:00,53.2,52.7,29.53,WSW,248,4.9,4.9,98,0.00,,,0.33,VWS V14.00,2013-01-30 16:51:00,
2013-01-30 11:56:00,53.2,52.7,29.53,SW,225,9.8,9.8,98,0.00,,,0.33,VWS V14.00,2013-01-30 16:56:00,
2013-01-30 12:00:00,53.2,52.7,29.53,South,180,7.6,7.6,98,0.00,,,0.33,VWS V14.00,2013-01-30 17:00:00,
2013-01-30 12:05:00,53.2,52.7,29.53,WSW,248,8.5,8.5,98,0.00,,,0.33,VWS V14.00,2013-01-30 17:05:00,
2013-01-30 12:10:00,53.6,53.0,29.53,SE,135,8.1,8.1,98,0.00,,,0.33,VWS V14.00,2013-01-30 17:10:00,
2013-01-30 12:15:00,53.6,53.0,29.53,SSW,202,8.5,8.5,98,0.00,,,0.33,VWS V14.00,2013-01-30 17:15:00,
2013-01-30 12:20:00,53.6,53.0,29.50,WSW,248,7.6,7.6,98,0.00,,,0.33,VWS V14.00,2013-01-30 17:20:00,
2013-01-30 12:25:00,54.0,53.4,29.50,WSW,248,4.0,4.0,98,0.00,,,0.33,VWS V14.00,2013-01-30 17:25:00,
2013-01-30 12:30:00,54.0,53.4,29.50,SSW,202,11.6,11.6,98,0.00,,,0.33,VWS V14.00,2013-01-30 17:30:00,
2013-01-30 12:35:00,54.1,53.6,29.50,SW,225,9.8,9.8,98,0.00,,,0.33,VWS V14.00,2013-01-30 17:35:00,
2013-01-30 12:40:00,54.0,53.4,29.50,SW,225,6.7,6.7,98,0.00,,,0.33,VWS V14.00,2013-01-30 17:40:00,
2013-01-30 12:45:00,54.1,53.6,29.50,SW,225,5.4,5.4,98,0.00,,,0.33,VWS V14.00,2013-01-30 17:45:00,
2013-01-30 12:50:00,54.1,53.6,29.50,SW,225,4.9,4.9,98,0.00,,,0.33,VWS V14.00,2013-01-30 17:50:00,
2013-01-30 12:55:00,54.3,53.8,29.50,WSW,248,9.8,9.8,98,0.00,,,0.33,VWS V14.00,2013-01-30 17:55:00,
2013-01-30 13:00:00,54.3,53.8,29.50,SW,225,6.3,6.3,98,0.00,,,0.33,VWS V14.00,2013-01-30 18:00:00,
2013-01-30 13:05:00,54.3,53.8,29.47,SSW,202,2.7,10.7,98,0.00,,,0.33,VWS V14.00,2013-01-30 18:05:00,
2013-01-30 13:10:00,54.5,53.7,29.47,WSW,248,6.3,6.3,97,0.00,,,0.33,VWS V14.00,2013-01-30 18:10:00,
2013-01-30 13:15:00,54.5,53.7,29.47,WSW,248,6.3,6.3,97,0.00,,,0.33,VWS V14.00,2013-01-30 18:15:00,
2013-01-30 13:20:00,54.5,53.4,29.44,WSW,248,9.8,9.8,96,0.00,,,0.33,VWS V14.00,2013-01-30 18:20:00,
2013-01-30 13:25:00,54.9,53.7,29.44,West,270,13.0,13.0,96,0.00,,,0.33,VWS V14.00,2013-01-30 18:25:00,
2013-01-30 13:30:00,54.9,53.7,29.44,SSW,202,9.8,9.8,96,0.00,,,0.33,VWS V14.00,2013-01-30 18:30:00,
2013-01-30 13:35:00,55.2,54.1,29.44,West,270,6.3,6.3,96,0.00,,,0.33,VWS V14.00,2013-01-30 18:35:00,
2013-01-30 13:40:00,55.2,53.8,29.44,SSW,202,0.0,4.5,95,0.00,,,0.33,VWS V14.00,2013-01-30 18:40:00,
2013-01-30 13:45:00,55.2,53.8,29.44,WSW,248,0.0,2.7,95,0.00,,,0.33,VWS V14.00,2013-01-30 18:45:00,
2013-01-30 13:50:00,55.2,53.5,29.44,SW,225,5.4,5.4,94,0.00,,,0.33,VWS V14.00,2013-01-30 18:50:00,
2013-01-30 13:55:00,55.2,53.5,29.44,WSW,248,7.6,7.6,94,0.00,,,0.33,VWS V14.00,2013-01-30 18:55:00,
2013-01-30 14:00:00,55.6,53.9,29.44,WSW,248,11.6,11.6,94,0.00,,,0.33,VWS V14.00,2013-01-30 19:00:00,
2013-01-30 14:05:00,55.6,53.9,29.44,SSW,202,11.2,11.2,94,0.00,,,0.33,VWS V14.00,2013-01-30 19:05:00,
2013-01-30 14:10:00,55.8,53.8,29.44,SW,225,14.3,14.3,93,0.00,,,0.33,VWS V14.00,2013-01-30 19:10:00,
2013-01-30 14:15:00,56.1,54.1,29.44,NW,315,12.5,12.5,93,0.00,,,0.33,VWS V14.00,2013-01-30 19:15:00,
2013-01-30 14:20:00,56.3,54.3,29.44,West,270,12.1,12.1,93,0.00,,,0.33,VWS V14.00,2013-01-30 19:20:00,
2013-01-30 14:25:00,56.5,54.2,29.44,West,270,9.8,10.7,92,0.00,,,0.33,VWS V14.00,2013-01-30 19:25:00,
2013-01-30 14:30:00,56.7,54.4,29.44,SSW,202,6.3,20.6,92,0.00,,,0.33,VWS V14.00,2013-01-30 19:30:00,
2013-01-30 14:35:00,56.7,54.1,29.41,WNW,292,6.7,6.7,91,0.00,,,0.33,VWS V14.00,2013-01-30 19:35:00,
2013-01-30 14:40:00,56.7,54.1,29.41,SW,225,2.2,5.4,91,0.00,,,0.33,VWS V14.00,2013-01-30 19:40:00,
2013-01-30 14:45:00,56.7,54.1,29.41,WSW,248,4.0,8.1,91,0.00,,,0.33,VWS V14.00,2013-01-30 19:45:00,
2013-01-30 14:50:00,56.7,54.1,29.41,SSW,202,4.9,4.9,91,0.00,,,0.33,VWS V14.00,2013-01-30 19:50:00,
2013-01-30 14:55:00,57.0,54.4,29.41,WNW,292,3.1,3.1,91,0.00,,,0.33,VWS V14.00,2013-01-30 19:55:00,
2013-01-30 15:00:00,57.0,54.4,29.41,SSW,202,7.2,7.2,91,0.00,,,0.33,VWS V14.00,2013-01-30 20:00:00,
2013-01-30 15:05:00,57.6,55.0,29.41,SSW,202,6.3,6.3,91,0.00,,,0.33,VWS V14.00,2013-01-30 20:05:00,
2013-01-30 15:10:00,57.7,54.8,29.41,SSW,202,2.2,12.5,90,0.00,,,0.33,VWS V14.00,2013-01-30 20:10:00,
2013-01-30 15:15:00,57.9,55.0,29.41,WSW,248,10.7,10.7,90,0.00,,,0.33,VWS V14.00,2013-01-30 20:15:00,
2013-01-30 15:20:00,58.3,55.1,29.41,WSW,248,11.2,11.2,89,0.00,,,0.33,VWS V14.00,2013-01-30 20:20:00,
2013-01-30 15:25:00,58.3,54.8,29.41,SSW,202,9.4,9.4,88,0.00,,,0.33,VWS V14.00,2013-01-30 20:25:00,
2013-01-30 15:30:00,58.6,55.1,29.41,SW,225,14.3,14.3,88,0.00,,,0.33,VWS V14.00,2013-01-30 20:30:00,
2013-01-30 15:35:00,58.6,54.8,29.38,SW,225,7.2,7.2,87,0.00,,,0.33,VWS V14.00,2013-01-30 20:35:00,
2013-01-30 15:40:00,58.8,54.3,29.38,WSW,248,12.1,12.1,85,0.00,,,0.33,VWS V14.00,2013-01-30 20:40:00,
2013-01-30 15:45:00,58.8,54.3,29.38,NNE,22,0.0,0.0,85,0.00,,,0.33,VWS V14.00,2013-01-30 20:45:00,
2013-01-30 15:50:00,58.8,54.0,29.38,SW,225,2.7,4.9,84,0.00,,,0.33,VWS V14.00,2013-01-30 20:50:00,
2013-01-30 15:55:00,58.6,54.2,29.38,SW,225,12.1,12.1,85,0.00,,,0.33,VWS V14.00,2013-01-30 20:55:00,
2013-01-30 16:00:00,58.8,54.3,29.38,SW,225,6.7,6.7,85,0.00,,,0.33,VWS V14.00,2013-01-30 21:00:00,
2013-01-30 16:05:00,58.6,54.2,29.38,SSW,202,6.3,8.1,85,0.00,,,0.33,VWS V14.00,2013-01-30 21:05:00,
2013-01-30 16:10:00,58.8,54.3,29.38,WSW,248,10.7,10.7,85,0.00,,,0.33,VWS V14.00,2013-01-30 21:10:00,
2013-01-30 16:15:00,58.8,54.0,29.38,SSW,202,6.3,6.3,84,0.00,,,0.33,VWS V14.00,2013-01-30 21:15:00,
2013-01-30 16:20:00,59.0,54.2,29.38,West,270,2.7,9.4,84,0.00,,,0.33,VWS V14.00,2013-01-30 21:20:00,
2013-01-30 16:25:00,58.8,54.0,29.38,SSW,202,9.8,11.6,84,0.00,,,0.33,VWS V14.00,2013-01-30 21:25:00,
2013-01-30 16:30:00,58.8,54.0,29.38,SW,225,2.2,10.7,84,0.00,,,0.33,VWS V14.00,2013-01-30 21:30:00,
2013-01-30 16:35:00,58.8,54.0,29.38,WSW,248,8.5,8.5,84,0.00,,,0.33,VWS V14.00,2013-01-30 21:35:00,
2013-01-30 16:40:00,58.6,53.8,29.38,SSW,202,17.5,17.5,84,0.00,,,0.33,VWS V14.00,2013-01-30 21:40:00,
2013-01-30 16:45:00,58.8,54.3,29.38,SW,225,8.1,11.2,85,0.00,,,0.33,VWS V14.00,2013-01-30 21:45:00,
2013-01-30 16:50:00,58.8,54.3,29.38,SW,225,10.7,14.8,85,0.00,,,0.33,VWS V14.00,2013-01-30 21:50:00,
2013-01-30 16:55:00,59.0,54.2,29.38,WSW,248,13.0,13.0,84,0.00,,,0.33,VWS V14.00,2013-01-30 21:55:00,
2013-01-30 17:00:00,59.0,54.2,29.38,SSW,202,5.8,5.8,84,0.00,,,0.33,VWS V14.00,2013-01-30 22:00:00,
2013-01-30 17:05:00,58.6,53.8,29.38,SW,225,5.8,18.8,84,0.00,,,0.33,VWS V14.00,2013-01-30 22:05:00,
2013-01-30 17:10:00,58.8,54.3,29.38,SW,225,13.0,14.3,85,0.00,,,0.33,VWS V14.00,2013-01-30 22:10:00,
2013-01-30 17:15:00,58.6,53.8,29.38,SSE,158,8.5,8.5,84,0.00,,,0.33,VWS V14.00,2013-01-30 22:15:00,
2013-01-30 17:20:00,58.6,53.8,29.41,SW,225,6.3,12.1,84,0.00,,,0.33,VWS V14.00,2013-01-30 22:20:00,
2013-01-30 17:25:00,58.5,53.7,29.41,WSW,248,10.7,10.7,84,0.00,,,0.33,VWS V14.00,2013-01-30 22:25:00,
2013-01-30 17:30:00,58.5,53.7,29.41,SW,225,12.1,12.1,84,0.00,,,0.33,VWS V14.00,2013-01-30 22:30:00,
2013-01-30 17:35:00,58.5,53.7,29.38,WSW,248,27.3,27.3,84,0.00,,,0.33,VWS V14.00,2013-01-30 22:35:00,
2013-01-30 17:40:00,58.5,53.7,29.38,SSW,202,3.1,16.1,84,0.00,,,0.33,VWS V14.00,2013-01-30 22:40:00,
2013-01-30 17:45:00,58.5,54.0,29.38,WNW,292,6.7,19.2,85,0.00,,,0.33,VWS V14.00,2013-01-30 22:45:00,
2013-01-30 17:50:00,58.5,54.0,29.38,NW,315,12.1,12.1,85,0.00,,,0.33,VWS V14.00,2013-01-30 22:50:00,
2013-01-30 17:55:00,58.5,54.0,29.38,WSW,248,11.6,11.6,85,0.00,,,0.33,VWS V14.00,2013-01-30 22:55:00,
2013-01-30 18:00:00,58.5,54.3,29.38,NNW,338,0.0,4.9,86,0.00,,,0.33,VWS V14.00,2013-01-30 23:00:00,
2013-01-30 18:05:00,58.5,54.3,29.38,WSW,248,11.6,11.6,86,0.00,,,0.33,VWS V14.00,2013-01-30 23:05:00,
2013-01-30 18:10:00,58.5,54.3,29.38,WSW,248,7.6,7.6,86,0.00,,,0.33,VWS V14.00,2013-01-30 23:10:00,
2013-01-30 18:15:00,58.5,54.3,29.38,SW,225,7.2,7.2,86,0.00,,,0.33,VWS V14.00,2013-01-30 23:15:00,
2013-01-30 18:20:00,58.6,54.5,29.38,West,270,4.0,4.0,86,0.00,,,0.33,VWS V14.00,2013-01-30 23:20:00,
2013-01-30 18:25:00,58.8,54.7,29.38,SSW,202,19.2,19.2,86,0.00,,,0.33,VWS V14.00,2013-01-30 23:25:00,
2013-01-30 18:30:00,59.0,54.5,29.38,WSW,248,9.4,9.4,85,0.00,,,0.33,VWS V14.00,2013-01-30 23:30:00,
2013-01-30 18:35:00,59.0,54.5,29.38,West,270,0.0,0.0,85,0.00,,,0.33,VWS V14.00,2013-01-30 23:35:00,
2013-01-30 18:40:00,58.8,54.3,29.38,WSW,248,5.8,5.8,85,0.00,,,0.33,VWS V14.00,2013-01-30 23:40:00,
2013-01-30 18:45:00,58.8,54.3,29.38,WSW,248,0.0,0.0,85,0.00,,,0.33,VWS V14.00,2013-01-30 23:45:00,
2013-01-30 18:50:00,59.0,54.8,29.38,WSW,248,6.7,6.7,86,0.00,,,0.33,VWS V14.00,2013-01-30 23:50:00,
2013-01-30 18:55:00,59.0,54.5,29.38,SW,225,6.7,6.7,85,0.00,,,0.33,VWS V14.00,2013-01-30 23:55:00,
2013-01-30 19:00:00,59.2,54.7,29.38,South,180,11.2,11.2,85,0.00,,,0.33,VWS V14.00,2013-01-31 00:00:00,
2013-01-30 19:05:00,59.2,54.7,29.35,SW,225,8.5,8.5,85,0.00,,,0.33,VWS V14.00,2013-01-31 00:05:00,
2013-01-30 19:10:00,59.2,54.4,29.35,SW,225,8.1,8.1,84,0.00,,,0.33,VWS V14.00,2013-01-31 00:10:00,
2013-01-30 19:15:00,59.4,54.5,29.35,SSW,202,6.3,6.3,84,0.00,,,0.33,VWS V14.00,2013-01-31 00:15:00,
2013-01-30 19:20:00,59.2,54.4,29.35,SW,225,2.7,2.7,84,0.00,,,0.33,VWS V14.00,2013-01-31 00:20:00,
2013-01-30 19:25:00,59.2,54.4,29.35,WSW,248,3.1,7.2,84,0.00,,,0.33,VWS V14.00,2013-01-31 00:25:00,
2013-01-30 19:30:00,59.2,54.4,29.35,SSW,202,8.1,8.1,84,0.00,,,0.33,VWS V14.00,2013-01-31 00:30:00,
2013-01-30 19:35:00,59.4,54.5,29.35,SSW,202,5.8,5.8,84,0.00,,,0.33,VWS V14.00,2013-01-31 00:35:00,
2013-01-30 19:40:00,59.2,54.7,29.35,WSW,248,5.8,11.6,85,0.00,,,0.33,VWS V14.00,2013-01-31 00:40:00,
2013-01-30 19:45:00,59.4,54.9,29.35,SW,225,2.2,2.2,85,0.00,,,0.33,VWS V14.00,2013-01-31 00:45:00,
2013-01-30 19:50:00,59.4,54.9,29.35,SSW,202,0.0,0.0,85,0.00,,,0.33,VWS V14.00,2013-01-31 00:50:00,
2013-01-30 19:55:00,59.4,54.9,29.35,SW,225,4.5,11.6,85,0.00,,,0.33,VWS V14.00,2013-01-31 00:55:00,
2013-01-30 20:00:00,59.4,54.9,29.35,SSW,202,9.4,9.4,85,0.00,,,0.33,VWS V14.00,2013-01-31 01:00:00,
2013-01-30 20:05:00,59.4,55.2,29.32,WSW,248,0.0,12.5,86,0.00,,,0.33,VWS V14.00,2013-01-31 01:05:00,
2013-01-30 20:10:00,59.4,55.2,29.32,West,270,4.9,5.8,86,0.00,,,0.33,VWS V14.00,2013-01-31 01:10:00,
2013-01-30 20:15:00,59.4,54.9,29.32,SSW,202,10.7,10.7,85,0.00,,,0.33,VWS V14.00,2013-01-31 01:15:00,
2013-01-30 20:20:00,59.4,55.2,29.32,SW,225,1.8,13.0,86,0.00,,,0.33,VWS V14.00,2013-01-31 01:20:00,
2013-01-30 20:25:00,59.4,55.2,29.32,SW,225,6.7,6.7,86,0.00,,,0.33,VWS V14.00,2013-01-31 01:25:00,
2013-01-30 20:30:00,59.4,55.5,29.32,WSW,248,2.7,2.7,87,0.00,,,0.33,VWS V14.00,2013-01-31 01:30:00,
2013-01-30 20:35:00,59.2,55.3,29.32,WSW,248,5.4,5.4,87,0.00,,,0.33,VWS V14.00,2013-01-31 01:35:00,
2013-01-30 20:40:00,59.0,55.5,29.32,SSW,202,11.2,11.2,88,0.00,,,0.33,VWS V14.00,2013-01-31 01:40:00,
2013-01-30 20:45:00,59.2,55.6,29.32,WSW,248,1.8,1.8,88,0.00,,,0.33,VWS V14.00,2013-01-31 01:45:00,
2013-01-30 20:50:00,59.2,55.6,29.32,SW,225,13.4,13.4,88,0.00,,,0.33,VWS V14.00,2013-01-31 01:50:00,
2013-01-30 20:55:00,59.2,55.6,29.32,SSW,202,11.2,11.2,88,0.04,,,0.37,VWS V14.00,2013-01-31 01:55:00,
2013-01-30 21:00:00,59.0,55.8,29.32,SW,225,6.7,6.7,89,0.08,,,0.41,VWS V14.00,2013-01-31 02:00:00,
2013-01-30 21:05:00,59.0,55.8,29.32,SW,225,0.0,0.0,89,0.12,,,0.45,VWS V14.00,2013-01-31 02:05:00,
2013-01-30 21:10:00,58.8,55.9,29.32,SSW,202,8.5,8.5,90,0.41,,,0.74,VWS V14.00,2013-01-31 02:10:00,
2013-01-30 21:15:00,58.8,55.9,29.32,SW,225,7.2,7.2,90,0.62,,,0.95,VWS V14.00,2013-01-31 02:15:00,
2013-01-30 21:20:00,58.8,56.2,29.32,WSW,248,1.8,1.8,91,0.66,,,0.99,VWS V14.00,2013-01-31 02:20:00,
2013-01-30 21:25:00,58.8,56.2,29.32,WSW,248,7.6,7.6,91,0.70,,,1.03,VWS V14.00,2013-01-31 02:25:00,
2013-01-30 21:30:00,58.8,56.2,29.32,WSW,248,19.7,19.7,91,0.83,,,1.16,VWS V14.00,2013-01-31 02:30:00,
2013-01-30 21:35:00,58.8,56.5,29.29,SW,225,17.0,17.0,92,1.04,,,1.37,VWS V14.00,2013-01-31 02:35:00,
2013-01-30 21:40:00,58.6,56.3,29.29,West,270,12.1,12.1,92,1.33,,,1.66,VWS V14.00,2013-01-31 02:40:00,
2013-01-30 21:45:00,58.6,56.3,29.29,South,180,9.8,9.8,92,1.54,,,1.87,VWS V14.00,2013-01-31 02:45:00,
2013-01-30 21:50:00,58.5,56.2,29.29,NE,45,4.5,4.5,92,1.66,,,1.99,VWS V14.00,2013-01-31 02:50:00,
2013-01-30 21:55:00,58.5,56.2,29.29,West,270,7.6,7.6,92,1.91,,,2.28,VWS V14.00,2013-01-31 02:55:00,
2013-01-30 22:00:00,58.6,56.3,29.29,WSW,248,8.1,12.5,92,1.91,,,2.32,VWS V14.00,2013-01-31 03:00:00,
2013-01-30 22:05:00,58.6,56.3,29.29,SSW,202,6.3,6.3,92,1.87,,,2.32,VWS V14.00,2013-01-31 03:05:00,
2013-01-30 22:10:00,58.5,56.2,29.29,SSW,202,17.0,17.0,92,1.75,,,2.41,VWS V14.00,2013-01-31 03:10:00,
2013-01-30 22:15:00,58.5,56.2,29.29,West,270,10.7,10.7,92,1.54,,,2.49,VWS V14.00,2013-01-31 03:15:00,
2013-01-30 22:20:00,58.5,56.2,29.29,SW,225,6.7,6.7,92,1.54,,,2.53,VWS V14.00,2013-01-31 03:20:00,
2013-01-30 22:25:00,58.5,56.2,29.29,West,270,6.3,6.3,92,1.54,,,2.57,VWS V14.00,2013-01-31 03:25:00,
2013-01-30 22:30:00,58.5,56.2,29.29,SSW,202,7.2,7.2,92,1.41,,,2.57,VWS V14.00,2013-01-31 03:30:00,
2013-01-30 22:35:00,58.5,56.2,29.29,WNW,292,2.2,5.4,92,1.24,,,2.61,VWS V14.00,2013-01-31 03:35:00,
2013-01-30 22:40:00,58.3,55.7,29.29,WSW,248,2.2,7.2,91,1.04,,,2.66,VWS V14.00,2013-01-31 03:40:00,
2013-01-30 22:45:00,58.1,55.8,29.29,SSW,202,0.0,0.0,92,0.83,,,2.70,VWS V14.00,2013-01-31 03:45:00,
2013-01-30 22:50:00,58.1,55.8,29.29,WNW,292,4.0,4.0,92,0.75,,,2.74,VWS V14.00,2013-01-31 03:50:00,
2013-01-30 22:55:00,58.1,55.8,29.29,WSW,248,2.7,12.5,92,0.46,,,2.74,VWS V14.00,2013-01-31 03:55:00,
2013-01-30 23:00:00,58.1,55.8,29.29,SW,225,0.0,0.0,92,0.46,,,2.78,VWS V14.00,2013-01-31 04:00:00,
2013-01-30 23:05:00,57.9,55.6,29.26,WSW,248,8.1,8.1,92,0.50,,,2.82,VWS V14.00,2013-01-31 04:05:00,
2013-01-30 23:10:00,57.9,55.9,29.26,SW,225,12.1,12.1,93,0.41,,,2.82,VWS V14.00,2013-01-31 04:10:00,
2013-01-30 23:15:00,57.9,55.9,29.26,West,270,11.2,11.2,93,0.37,,,2.86,VWS V14.00,2013-01-31 04:15:00,
2013-01-30 23:20:00,57.9,55.9,29.26,South,180,17.5,17.5,93,0.37,,,2.90,VWS V14.00,2013-01-31 04:20:00,
2013-01-30 23:25:00,58.1,56.1,29.26,South,180,7.6,7.6,93,0.37,,,2.94,VWS V14.00,2013-01-31 04:25:00,
2013-01-30 23:30:00,58.1,56.1,29.26,South,180,20.6,20.6,93,0.42,,,2.99,VWS V14.00,2013-01-31 04:30:00,
2013-01-30 23:35:00,57.9,55.9,29.23,West,270,9.4,9.4,93,0.42,,,3.03,VWS V14.00,2013-01-31 04:35:00,
2013-01-30 23:40:00,57.9,56.2,29.23,SW,225,25.1,25.1,94,0.46,,,3.07,VWS V14.00,2013-01-31 04:40:00,
2013-01-30 23:45:00,57.9,56.2,29.23,West,270,5.8,5.8,94,0.41,,,3.11,VWS V14.00,2013-01-31 04:45:00,
2013-01-30 23:50:00,57.9,56.2,29.23,West,270,0.0,0.0,94,0.37,,,3.11,VWS V14.00,2013-01-31 04:50:00,
2013-01-30 23:55:00,57.9,55.9,29.23,SW,225,0.0,12.1,93,0.41,,,0.00,VWS V14.00,2013-01-31 04:55:00,